カタログに戻る

STARLINK-35064

運用中通信SSO
NORAD 65531·PAYLOAD·🇺🇸 United States

打ち上げ Sep 6, 2025 から Cape Canaveral Space Force Station

Loading…

次のパス (今後24時間)

TLE

最新Source: CelesTrak SupGP

元期: Sep 14, 2026, 22:51 UTC

1 65531C 25200M   26257.95256944 -.00006306  00000+0 -19585-3 0  2579
2 65531  97.2846 324.3741 0000926  90.5018  71.3696 15.33429113    17

AllMySatでSTARLINK-35064をリアルタイム追跡

Download on the App Store